Regional Weather Roundup
Issued by NWS Cleveland, OH

Home | Current Version | Previous Version | Graphics & Text | Print | Product List | Glossary On
Versions: 1 2 3 4 5 6 7 8 9 10 11 12 13 14 15 16 17 18 19 20 21 22 23 24 25 26 27 28 29 30 31 32 33 34 35 36 37 38 39 40 41 42 43 44 45 46 47 48 49 50
000
ASUS41 KCLE 282310
RWRCLE
OHIO REGIONAL WEATHER ROUNDUP
NATIONAL WEATHER SERVICE WILMINGTON, OH
700 PM EDT THU APR 28 2016

NOTE: "FAIR" INDICATES FEW OR NO CLOUDS BELOW 12,000 FEET WITH NO
SIGNIFICANT WEATHER AND/OR OBSTRUCTIONS TO VISIBILITY.

OHZ001>008-015>018-024>027-034-035-043-044-290000-
   NORTHWEST OHIO

CITY           SKY/WX    TMP DP  RH WIND       PRES   REMARKS
DEFIANCE       CLOUDY    51  38  60 NE10      29.93S
FINDLAY        CLOUDY    51  41  68 NE9       29.91R
TOLEDO EXPRESS CLOUDY    46  36  68 E16       29.95R
TOLEDO EXEC    CLOUDY    47  37  68 NE14G23   29.96R
LIMA           CLOUDY    50  47  89 NE10      29.91R
$$

OHZ009>014-019>023-028>033-038-089-290000-
   NORTHEAST OHIO

CITY           SKY/WX    TMP DP  RH WIND       PRES   REMARKS
CLE-HOPKINS    CLOUDY    48  45  89 N10       29.97R
CLE-LAKEFRONT  CLOUDY    47  43  86 NE20      29.94R
CUY CO. ARPT   CLOUDY    45  43  93 NE9       29.95R
LORAIN-ELYRIA  CLOUDY    47  43  86 NE10      29.94R
ASHTABULA      CLOUDY    47  45  93 N5        29.97R
AKRON-CANTON   CLOUDY    48  44  86 NE9       29.92R
WOOSTER        CLOUDY    50  46  86 NE9       29.92R
MANSFIELD      CLOUDY    51  47  86 N8        29.90S
YOUNGSTOWN     LGT RAIN  47  43  86 E6        29.94R
$$

OHZ042-051>053-060>062-070>072-077>081-290000-
  SOUTHWEST OHIO

CITY           SKY/WX    TMP DP  RH WIND       PRES   REMARKS
CINC-COVINGTON FAIR      74  51  44 W17G25    29.84R
CINC-LUNKEN    FAIR      74  60  61 W10       29.82R
HAMILTON       FAIR      75  54  47 NW13G20   29.83R
DAYTON         PTSUNNY   61  57  87 N13       29.86S
WRIGHT-PAT AFB PTSUNNY   64  62  94 N8        29.85R
DAYTON GENERAL FAIR      67  59  75 N16       29.83R
WILMINGTON     FAIR      67  60  78 SE5       29.82S
$$

OHZ036-037-039>041-045>050-054>059-063>069-073>076-082>088-290000-
  CENTRAL AND SOUTHEAST OHIO

CITY           SKY/WX    TMP DP  RH WIND       PRES   REMARKS
COLUMBUS       PTSUNNY   61  53  75 N7        29.85R
OSU AIRPORT    PTSUNNY   63  54  72 N8        29.86R
BOLTON FIELD   MOSUNNY   64  55  72 N6        29.86R
RICKENBACK AFB FAIR      65  55  72 N9        29.84R
NEWARK         FAIR      61  51  70 VRB7      29.85S
MARION         CLOUDY    53  49  86 N10       29.90R FOG
LANCASTER      FAIR      64  56  75 NE9       29.85R
ZANESVILLE     CLOUDY    62  52  69 NE7       29.86S
NEW PHILLY     CLOUDY    52  48  86 NE6       29.90R
$$



USA.gov is the U.S. government's official web portal to all federal, state and local government web resources and services.